[[{"header":{"parameterUnit":"m.s-1","parameterCategory":1,"la1":30.2991,"la2":30.254,"lo1":-89.0895,"lo2":-89.0444,"dy":0.0017,"dx":0.0017,"nx":28,"ny":28,"refTime":"2023-08-11T03:00:00:Z","depth":0,"parameterNumber":2,"parameterNumberName":"U-component_of_WINDS"},"data":[0,0,0,0,0,0,0,0,0,0,0,0,0,0,0,0,0,0,0,0,0,0,0,0,0,0,0,0,0,0,0,0,0,0,0,0,0,0,0,0,0,0,0,0,0,0,0,0,0,0,0,0,0,0,0,0,0,0,1.7571,1.7572,0,1.7624,1.7624,1.7625,1.7654,1.7654,1.7654,1.7654,1.7708,1.771,1.7711,0,0,0,0,0,0,0,0,0,0,0,0,0,1.75,1.7501,1.7571,1.7572,1.7573,1.7623,1.7624,1.7625,1.7654,1.7654,1.7654,1.7654,1.7708,1.7709,1.7711,0,0,0,0,0,0,0,0,0,0,0,0,0,1.7539,1.7502,1.7571,1.7593,1.7596,1.7623,1.7624,1.7625,1.7654,1.7654,1.7654,1.7654,1.7707,1.7709,1.7711,1.7721,0,0,1.7717,1.7718,0,0,0,0,0,0,0,0,1.7537,1.7542,1.7589,1.7592,1.7595,1.7632,1.7619,1.7657,1.7654,1.7632,1.7654,1.7654,1.7683,1.7687,1.7696,1.7724,1.7726,1.7718,1.7719,1.772,1.772,0,0,0,0,0,0,0,1.7534,1.754,1.7592,1.759,1.7593,1.7602,1.7607,1.7626,1.7656,1.7634,1.7636,1.7642,1.7684,1.7694,1.7698,1.7727,1.7718,1.7719,1.7721,1.7721,1.7769,1.7769,0,0,0,0,0,0,1.7528,1.7537,1.759,1.7594,1.7566,1.7603,1.7609,1.762,1.7656,1.7661,1.7642,1.7643,1.7691,1.7696,1.77,1.7716,1.772,1.7722,1.7723,1.7769,1.7769,1.7769,0,0,0,0,0,0,1.7526,1.7532,1.7588,1.7566,1.7574,1.7604,1.7616,1.7621,1.7631,1.7662,1.7667,1.7646,1.7691,1.7697,1.7716,1.7718,1.7723,1.7724,1.7769,1.7769,1.7769,1.7746,0,0,0,0,0,0,1.7524,1.7531,1.7534,1.7566,1.7575,1.7602,1.7616,1.7622,1.7634,1.7637,1.7668,1.7673,1.7692,1.7713,1.7718,1.7721,1.7726,1.7768,1.7769,1.7769,1.7747,1.7745,1.7744,0,0,0,0,0,1.7521,1.7525,1.7534,1.7541,1.7579,1.7602,1.7608,1.7629,1.7634,1.7638,1.7659,1.7672,1.7717,1.7715,1.7721,1.7724,1.7768,1.7769,1.7769,1.7747,1.7745,1.7744,0,0,0,0,0,0,1.7492,1.753,1.754,1.7554,1.7575,1.7607,1.7612,1.7626,1.7646,1.7647,1.7674,1.768,1.7698,1.7713,1.771,1.7737,1.7745,1.7746,1.7726,1.7725,1.7723,1.7719,1.7728,0,0,0,0,0,1.7487,1.7503,1.7535,1.7544,1.7554,1.7582,1.7593,1.7608,1.7631,1.7639,1.7661,1.7683,1.7703,1.7715,1.7734,1.775,1.7758,1.7755,1.7754,1.7753,1.7753,1.7765,1.7765,1.7769,1.7769,1.7769,0,0,1.7477,1.75,1.7508,1.7539,1.7557,1.7573,1.7589,1.7604,1.7617,1.7642,1.7661,1.7679,1.7706,1.7724,1.7733,1.7737,1.7755,1.7753,1.7752,1.7753,1.7765,1.7765,1.7765,1.7769,1.7769,1.7769,0,0,1.7468,1.7486,1.7497,1.7515,1.7543,1.7561,1.7564,1.7596,1.7608,1.7629,1.7648,1.7665,1.7697,1.7716,1.773,1.7733,1.7746,1.7738,1.7731,1.7742,1.7742,1.7742,1.7744,1.7744,1.7739,1.7739,1.7739,0,1.7452,1.7476,1.75,1.7516,1.753,1.7555,1.7567,1.7584,1.7616,1.7626,1.7631,1.7675,1.7694,1.7718,1.7719,1.773,1.7735,1.7734,1.774,1.774,1.774,1.7743,1.7743,1.7738,1.7738,1.7738,1.7738,0,1.7456,1.7473,1.7479,1.751,1.7526,1.7539,1.7567,1.758,1.7596,1.7615,1.7637,1.7662,1.7688,1.7696,1.771,1.7723,1.7725,1.7735,1.7742,1.7738,1.7741,1.7742,1.7736,1.7737,1.7737,1.7737,0,0,1.7425,1.7473,1.7475,1.7491,1.7525,1.7539,1.7556,1.7582,1.7594,1.7617,1.7632,1.7661,1.7671,1.7687,1.7705,1.7715,1.7718,1.7724,1.7725,1.7722,1.7736,1.7728,1.7728,1.7728,1.7728,1.7728,1.7734,0,1.742,1.745,1.7474,1.7496,1.7513,1.7539,1.7554,1.7578,1.7597,1.7616,1.7638,1.7659,1.767,1.768,1.7691,1.7714,1.7721,1.7715,1.7743,1.7744,1.7735,1.7729,1.772,1.7724,1.7735,1.7735,1.7735,0,1.7417,1.744,1.7463,1.7499,1.7507,1.752,1.7548,1.7565,1.7594,1.7608,1.7628,1.7647,1.7668,1.7675,1.7705,1.7701,1.7715,1.7728,1.7729,1.7732,1.7738,1.7732,1.7726,1.7726,1.7737,1.7737,1.7737,0,1.7393,1.743,1.7449,1.7462,1.7504,1.7513,1.7531,1.756,1.7575,1.7601,1.7611,1.7639,1.7653,1.7675,1.7702,1.7705,1.773,1.7739,1.7743,1.7743,1.7746,1.7745,1.7742,1.7756,1.7756,1.7756,1.7756,0,1.7384,1.7397,1.744,1.7451,1.7468,1.7498,1.7514,1.7534,1.7561,1.7578,1.7603,1.762,1.7654,1.7676,1.7697,1.772,1.7727,1.774,1.7745,1.7737,1.7735,1.7745,1.7745,1.7756,1.7756,1.7756,1.7756,0,1.7359,1.7387,1.741,1.745,1.746,1.7471,1.7505,1.7518,1.7541,1.7563,1.757,1.7606,1.7632,1.7662,1.7698,1.7713,1.7735,1.7743,1.7725,1.7728,1.7731,1.773,1.7733,1.7735,1.7748,1.7748,1.7748,0,1.735,1.7361,1.7403,1.7417,1.7434,1.7456,1.7472,1.7504,1.752,1.7557,1.7566,1.7595,1.7619,1.7661,1.7691,1.772,1.7729,1.7728,1.7733,1.7726,1.773,1.7728,1.773,1.7726,1.7726,1.7725,1.7725,0,1.7333,1.7348,1.737,1.7399,1.7419,1.7443,1.7468,1.7478,1.7515,1.7533,1.7561,1.758,1.7619,1.7648,1.7681,1.7702,1.772,1.7724,1.7727,1.7718,1.7707,1.7713,1.772,1.7723,1.7723,1.7723,1.7724,1.7724,1.7316,1.7328,1.736,1.7385,1.7408,1.7432,1.7448,1.7474,1.7497,1.7531,1.7549,1.7577,1.761,1.7657,1.7678,1.7701,1.7707,1.771,1.7711,1.7711,1.771,1.7704,1.7708,1.7708,1.7708,1.7708,1.7708,0,1.73,1.7323,1.7346,1.7381,1.7402,1.7419,1.745,1.7466,1.749,1.7519,1.7544,1.7578,1.7608,1.7642,1.7674,1.7687,1.7696,1.7694,1.7693,1.7698,1.7702,1.7697,1.7686,1.7686,1.7686,1.7686,1.7686,1.7686,1.7294,1.7316,1.7335,1.737,1.7393,1.7421,1.7437,1.746,1.7484,1.7521,1.7546,1.7568,1.76,1.7635,1.7664,1.7674,1.7685,1.768,1.7692,1.7695,1.7697,1.7699,1.7694,1.7682,1.7682,1.7685,1.7685,1.7685]},{"header":{"parameterUnit":"m.s-1","parameterCategory":1,"la1":30.2991,"la2":30.254,"lo1":-89.0895,"lo2":-89.0444,"dy":0.0017,"dx":0.0017,"nx":28,"ny":28,"refTime":"2023-08-11T03:00:00:Z","depth":0,"parameterNumber":3,"parameterNumberName":"V-component_of_WINDS"},"data":[0,0,0,0,0,0,0,0,0,0,0,0,0,0,0,0,0,0,0,0,0,0,0,0,0,0,0,0,0,0,0,0,0,0,0,0,0,0,0,0,0,0,0,0,0,0,0,0,0,0,0,0,0,0,0,0,0,0,4.1364,4.1365,0,4.1507,4.1509,4.1511,4.1546,4.1545,4.1544,4.1544,4.1683,4.1688,4.1692,0,0,0,0,0,0,0,0,0,0,0,0,0,4.1112,4.1117,4.1364,4.1366,4.1367,4.1507,4.1509,4.1511,4.1546,4.1545,4.1544,4.1543,4.1682,4.1687,4.1693,0,0,0,0,0,0,0,0,0,0,0,0,0,4.1235,4.1118,4.1363,4.1402,4.1407,4.1507,4.1509,4.1512,4.1547,4.1545,4.1544,4.1543,4.168,4.1687,4.1694,4.1763,0,0,4.1715,4.1718,0,0,0,0,0,0,0,0,4.1228,4.1244,4.1395,4.14,4.1405,4.1508,4.1472,4.1596,4.1547,4.1493,4.1544,4.1542,4.1626,4.1637,4.1667,4.177,4.1776,4.1715,4.1719,4.1722,4.1724,0,0,0,0,0,0,0,4.1219,4.1238,4.142,4.1397,4.1403,4.1409,4.1425,4.1495,4.1565,4.1498,4.1501,4.1518,4.1628,4.166,4.167,4.1778,4.1715,4.1721,4.1725,4.1728,4.1941,4.1942,0,0,0,0,0,0,4.1205,4.1231,4.1416,4.1425,4.1312,4.1415,4.1433,4.1476,4.1565,4.1577,4.1519,4.1519,4.1649,4.1662,4.1675,4.176,4.1722,4.1729,4.1733,4.1939,4.1941,4.1943,0,0,0,0,0,0,4.12,4.1221,4.141,4.1329,4.1353,4.1421,4.1469,4.148,4.1511,4.158,4.1592,4.1539,4.1648,4.1665,4.1741,4.1765,4.1732,4.1738,4.1937,4.194,4.1942,4.1931,0,0,0,0,0,0,4.1192,4.1219,4.1248,4.1329,4.1357,4.1476,4.1471,4.1483,4.1524,4.1525,4.1602,4.1614,4.1649,4.173,4.1747,4.1774,4.1743,4.1936,4.1939,4.1941,4.193,4.1933,4.1936,0,0,0,0,0,4.1183,4.1239,4.125,4.1272,4.1396,4.1477,4.1493,4.1534,4.1526,4.1554,4.1598,4.1611,4.176,4.1738,4.1757,4.1786,4.1934,4.1938,4.1941,4.1928,4.1932,4.1936,0,0,0,0,0,0,4.1158,4.125,4.1263,4.1347,4.1404,4.1483,4.152,4.1537,4.1596,4.1595,4.1641,4.1658,4.1729,4.1766,4.1739,4.1856,4.1847,4.1854,4.183,4.1835,4.1837,4.1826,4.1749,0,0,0,0,0,4.1162,4.1223,4.13,4.1366,4.1394,4.1452,4.1489,4.1516,4.1576,4.1599,4.1649,4.1704,4.1763,4.1801,4.1859,4.1935,4.1951,4.1965,4.1968,4.197,4.1975,4.2015,4.2021,4.1954,4.1954,4.1954,0,0,4.1171,4.1229,4.1265,4.1362,4.141,4.1468,4.1472,4.1535,4.1578,4.1608,4.1682,4.172,4.1785,4.186,4.1895,4.1892,4.1997,4.1974,4.1975,4.198,4.2019,4.2025,4.2031,4.1957,4.1956,4.1956,0,0,4.1218,4.1269,4.1329,4.1376,4.1448,4.1486,4.15,4.1577,4.1603,4.1679,4.1702,4.1752,4.1854,4.1898,4.1934,4.1995,4.2008,4.2012,4.2027,4.2065,4.2071,4.2075,4.2095,4.2101,4.2018,4.2018,4.2018,0,4.1219,4.1312,4.1357,4.1419,4.1459,4.1491,4.155,4.1593,4.1679,4.1705,4.1701,4.1827,4.1873,4.1958,4.1972,4.2001,4.2016,4.2003,4.2067,4.2072,4.2077,4.2096,4.2103,4.2018,4.2018,4.2018,4.2018,0,4.1308,4.1372,4.1411,4.1496,4.1541,4.1601,4.1652,4.1692,4.1714,4.1751,4.1825,4.1881,4.195,4.1972,4.1994,4.2059,4.2055,4.2058,4.2049,4.2083,4.2101,4.2109,4.2017,4.2017,4.2017,4.2017,0,0,4.1343,4.1451,4.1464,4.1502,4.1583,4.1631,4.1691,4.176,4.1792,4.185,4.1899,4.1983,4.1986,4.2027,4.2054,4.2087,4.2128,4.2086,4.2088,4.209,4.22,4.2195,4.2203,4.2138,4.214,4.2141,4.2193,0,4.1398,4.1509,4.155,4.1639,4.1696,4.1726,4.1777,4.183,4.1866,4.1918,4.1956,4.2015,4.2016,4.204,4.2075,4.2116,4.215,4.2113,4.2181,4.2183,4.2163,4.2213,4.221,4.2257,4.2201,4.2202,4.2203,0,4.1477,4.1537,4.1632,4.1704,4.173,4.1776,4.1841,4.1891,4.1951,4.1974,4.2018,4.2043,4.2103,4.2091,4.2172,4.2145,4.2175,4.2199,4.2202,4.2209,4.2194,4.2219,4.2273,4.2279,4.2215,4.2214,4.2214,0,4.1489,4.1594,4.1664,4.1695,4.1782,4.1813,4.1849,4.1908,4.1946,4.2003,4.2027,4.2089,4.2122,4.2168,4.2207,4.2195,4.2283,4.2275,4.2302,4.2301,4.2318,4.2316,4.2376,4.234,4.234,4.234,4.234,0,4.1545,4.1601,4.1671,4.1713,4.1776,4.1822,4.1882,4.192,4.1972,4.202,4.2049,4.2093,4.2143,4.2192,4.2223,4.2284,4.2299,4.2317,4.2324,4.2314,4.2311,4.2333,4.233,4.2342,4.2342,4.2341,4.2341,0,4.1569,4.1618,4.1696,4.1771,4.1791,4.1834,4.1897,4.1938,4.1975,4.2035,4.2052,4.2109,4.2169,4.2212,4.2289,4.2309,4.2374,4.2382,4.2354,4.2358,4.2381,4.2378,4.2456,4.2467,4.2425,4.2425,4.2426,0,4.1601,4.1645,4.1725,4.1761,4.1798,4.1855,4.1894,4.194,4.1979,4.2049,4.2081,4.2143,4.2195,4.2288,4.2334,4.2392,4.2401,4.2424,4.2409,4.2397,4.2398,4.2395,4.2398,4.2425,4.2426,4.2426,4.2426,0,4.1651,4.1672,4.173,4.1795,4.1841,4.1894,4.1947,4.1973,4.2028,4.207,4.2132,4.2173,4.2251,4.2311,4.2373,4.2408,4.2425,4.243,4.2439,4.2428,4.241,4.2418,4.2358,4.2428,4.2428,4.2428,4.2428,4.2428,4.1678,4.1718,4.1781,4.1842,4.1887,4.1935,4.1977,4.202,4.2073,4.2142,4.2165,4.2229,4.2284,4.237,4.2405,4.2454,4.2453,4.2466,4.2469,4.2471,4.247,4.2403,4.2465,4.2465,4.2465,4.2465,4.2465,0,4.1728,4.1769,4.1826,4.19,4.1947,4.1962,4.202,4.2058,4.2115,4.2167,4.2218,4.2288,4.2346,4.2396,4.2456,4.2484,4.2493,4.2498,4.2496,4.2503,4.2468,4.2454,4.249,4.249,4.249,4.249,4.249,4.249,4.1759,4.1827,4.1855,4.1944,4.1985,4.2049,4.2081,4.2125,4.2166,4.2244,4.2293,4.2327,4.2377,4.244,4.2492,4.2506,4.2525,4.2528,4.2542,4.2508,4.2505,4.2502,4.2489,4.2532,4.2532,4.2573,4.2573,4.2573]}]]